Simultaneous Nadir Overpasses (SNOs) Predictions

Prediction of SNOs between LANDSAT-8 and NOAA-19 Satellite Orbit:

Table of predicted SNOs for the next 14.0 days since TLE Epoch: 8/17/2024
Index Date (LANDSAT-8) Time (LANDSAT-8) Lat,Lon (LANDSAT-8) SZA (LANDSAT-8 ) Date (NOAA-19) Time (NOAA-19) Lat,Lon (NOAA-19) SZA (NOAA-19 ) Distance(km) Time Diff (sec)
1 08/19/2024 01:20:42 80.52,-167.76 69.27 08/19/2024 01:19:39 80.51,-167.94 69.23 3.30 63
2 08/19/2024 02:10:07 -80.58, 0.50 110.61 08/19/2024 02:10:33 -80.57, 0.36 110.62 2.74 26
3 08/21/2024 08:33:19 -80.56, -95.43 109.88 08/21/2024 08:33:19 -80.56, -95.37 109.87 1.10 0
4 08/23/2024 14:56:30 -80.55, 168.62 109.13 08/23/2024 14:56:05 -80.55, 168.76 109.12 2.68 25
5 08/23/2024 15:45:55 80.58, -23.42 70.94 08/23/2024 15:47:03 80.58, -23.49 70.96 1.39 68
6 08/25/2024 21:19:40 -80.53, 72.63 108.37 08/25/2024 21:18:51 -80.53, 72.74 108.37 2.05 49
7 08/25/2024 22:09:05 80.56,-119.43 71.70 08/25/2024 22:09:48 80.56,-119.39 71.73 0.97 43
8 08/28/2024 03:42:49 -80.51, -23.38 107.60 08/28/2024 03:41:37 -80.50, -23.42 107.63 0.93 72
9 08/28/2024 04:32:13 80.56, 144.86 72.52 08/28/2024 04:32:32 80.56, 144.91 72.53 1.06 19



Historial Predications of SNOs between LANDSAT-8 and NOAA-19
